Regional Weather Roundup
Issued by NWS

Home | Current Version | Previous Version | Text Only | Print | Product List | Glossary Off
Versions: 1 2 3 4 5 6 7 8 9 10 11 12 13 14 15 16 17 18 19 20 21 22 23 24 25 26 27 28 29 30 31 32 33 34 35 36 37 38 39 40 41 42 43 44 45 46 47 48 49 50

000
ASUS43 KMKX 301400
RWRWI

WISCONSIN REGIONAL WEATHER ROUNDUP
NATIONAL WEATHER SERVICE MILWAUKEE/SULLIVAN WI
900 AM CDT SUN AUG 30 2015

NOTE: "FAIR" INDICATES FEW OR NO CLOUDS BELOW 12,000 FEET WITH NO
SIGNIFICANT WEATHER AND/OR OBSTRUCTIONS TO VISIBILITY.

WIZ001-002-006>008-014>016-023>028-301500-
NORTHWEST WISCONSIN

CITY           SKY/WX    TMP DP  RH WIND       PRES   REMARKS
SUPERIOR ARPT  CLOUDY    66  63  89 SW8       29.95S
ASHLAND        PTSUNNY   68  64  87 SW12G22   29.96F
HAYWARD        CLOUDY    64  61  90 SW12      30.01F
SIREN          CLOUDY    65  62  89 S7        30.00S
CUMBERLAND     FOG       61  59  94 SW9       30.02S VSB 1
RICE LAKE      FOG       61  60  96 S3        30.05R VSB 3/4
CHETEK         CLOUDY   N/A N/A N/A SE6       30.04R
LADYSMITH      CLOUDY    62  60  95 S8        30.06R FOG
EAU CLAIRE     SUNNY     64  60  87 S7        30.03F
MENOMONIE      CLOUDY    62  62  99 S5        30.04S FOG
NEW RICHMOND   CLOUDY    63  63  99 S8        30.02S
OSCEOLA        CLOUDY    65  65 100 S8        30.03S
$$

WIZ003>005-009-010-017-018-301500-
NORTH CENTRAL WISCONSIN

CITY           SKY/WX    TMP DP  RH WIND       PRES   REMARKS
MANITOWISH WTR CLOUDY    61  61 100 SW8       30.03S
ARBOR VITAE    CLOUDY    62  60  94 SW8       30.05R
WOODRUFF       CLOUDY    62  60  94 SW8       30.05R
RHINELANDER    CLOUDY    59  58  96 SW5       30.07S FOG
EAGLE RIVER    CLOUDY    61  60  99 SW8       30.05S
LAND O LAKES   CLOUDY    63  60  90 SW5       30.05S
PHILLIPS       CLOUDY    60  59  99 SW5       30.04S
TOMAHAWK       FOG       56  55  97 CALM      30.06F VSB 1/4
MEDFORD        PTSUNNY   59  59 100 S5        30.06S
MERRILL        FOG       56  56 100 CALM      30.07S VSB 1/2
$$

WIZ029-030-035-036-043>047-301500-
CENTRAL WISCONSIN

CITY           SKY/WX    TMP DP  RH WIND       PRES   REMARKS
WAUSAU         CLOUDY    56  55  97 E3        30.05F FOG
MOSINEE        FOG       55  55 100 VRB3      30.08S VSB 1/4
MARSHFIELD     PTSUNNY   61  58  90 SW7       30.07S
STEVENS POINT  FOG       56  56 100 CALM      30.08S VSB 1/4
WAUPACA        FOG       58  57  96 CALM      30.09S VSB 1/2
WAUTOMA        NOT AVBL
WISC RAPIDS    SUNNY     61  59  93 S3        30.08F
CAMP DOUGLAS   NOT AVBL
$$

WIZ011>013-019>022-031-037>040-048>050-301500-
NORTHEAST WISCONSIN

CITY           SKY/WX    TMP DP  RH WIND       PRES   REMARKS
ANTIGO         FOG       58  58 100 CALM      30.08R VSB 1/2
SHAWANO        FOG       58  56  96 CALM      30.07S VSB 1
OCONTO         SUNNY     58  58 100 CALM      30.06S
STURGEON BAY   MOSUNNY   63  59  88 SW3       30.09S
GREEN BAY      FOG       61  61 100 S5        30.08R VSB 1/2
MANITOWOC      NOT AVBL
APPLETON       MOSUNNY   61  61 100 CALM      30.07S FOG
CLINTONVILLE   SUNNY     57  57 100 CALM      30.07F
OSHKOSH        FOG       62  61  96 S3        30.08S VSB<1/4
$$

WIZ032>034-041-042-053>061-301500-
SOUTHWEST WISCONSIN

CITY           SKY/WX    TMP DP  RH WIND       PRES   REMARKS
LA CROSSE      FOG       61  61 100 SE5       30.06S VSB 1/4
SPARTA         SUNNY     57  56  95 CALM      30.08R
VIROQUA          N/A     62  62 100 S5        30.08S
BOSCOBEL       FOG       61  60  97 CALM      30.09R VSB 1/4
PRAIRIE DU CHI FOG       60  58  96 CALM      30.08R VSB 3/4
PLATTEVILLE    SUNNY     64  62  93 CALM      30.09R
$$

WIZ056-057-062-063-064-067-068-301500-
SOUTH CENTRAL WISCONSIN

CITY           SKY/WX    TMP DP  RH WIND       PRES   REMARKS
REEDSBURG      MOSUNNY   60  60 100 CALM      30.08R
BARABOO/DELLS  SUNNY     62  61  95 CALM      30.08S
LONE ROCK      FOG       62  61  96 CALM      30.09R VSB 1
MINERAL POINT  SUNNY     66  61  82 CALM      30.09R
MADISON        MOSUNNY   67  58  72 SE5       30.08R
MIDDLETON      CLOUDY    66  66 100 CALM      30.09R
WATERTOWN      CLOUDY    64  64 100 CALM      30.08S FOG
MONROE         CLOUDY    64  59  82 CALM      30.08S
JANESVILLE     CLOUDY    66  64  94 E3        30.08S
$$

WIZ051-052-058>065-066-070>072-301500-
SOUTHEAST WISCONSIN

CITY           SKY/WX    TMP DP  RH WIND       PRES   REMARKS
MILWAUKEE      FOG       64  62  93 NE3       30.08S VSB 1/4
WAUKESHA       CLOUDY    63  61  94 CALM      30.10R FOG
MILWAUKEE/TIMM CLOUDY    63  61  94 CALM      30.09S FOG
RACINE         FOG       64  62  93 N5        30.10R VSB 1/2
BURLINGTON     CLOUDY    62  61  95 N3        30.09R
KENOSHA        CLOUDY    65  64  97 N6        30.09S FOG
FOND DU LAC    FOG       63  61  93 CALM      30.09R VSB 1/4
SHEBOYGAN      FOG       61  60  97 CALM      30.09R VSB 1/4
WEST BEND      CLOUDY    61  59  94 CALM      30.09R FOG
JUNEAU         FOG       60  59  99 E3        30.10R VSB<1/4
$$

LSZ147-162-301500-
LAKE SUPERIOR

STATION/POSITION TIME  TEMP    WIND        PRES    WAVE
                       AIR SEA DIR/SP/G            HT/PER
                 (UTC) (F)     (DEG/KT/KT) (MB)    (FT/S)
W MID LAKE BUOY  1250   58 54  220/ 12/ 14 1014.2R   1/ 3
DEVILS ISLAND    1300   64     210/  6/  7 1014.1F
PORT WING        1300   66     200/  8/ 13 1014.2F
SAXON HARBOR     1300   67     210/ 11/ 17 1014.2
$$

LMZ867-665-643>646-301500-
LAKE MICHIGAN

STATION/POSITION TIME  TEMP    WIND        PRES    WAVE
                       AIR SEA DIR/SP/G            HT/PER
                 (UTC) (F)     (DEG/KT/KT) (MB)    (FT/S)
CHAMBERS ISLAND  1300   60     160/  4/  8 1017.6F
S GREEN BAY BUOY 1300   60 62  180/  6/  6 1019.5F
N MID LAKE BUOY  1250   63 64  200/  8/ 10 1017.4F   0
NORTHPORT PIER   1300   67     170/  2/  3 1017.6S
SISTER BAY       1319   68        CALM       N/A
ALGOMA LAKESHORE 1314             CALM       N/A
SHEBOYGAN LAKESH 1300   54      10/  2/  3 1019.0R
PORT WASHINGTON  1340   57     140/  1/  1 1019.3S
ATWATER BUOY     1300   56 49  350/  6/  6 1019.8R
MILWAUKEE LAKESH 1300   61      30/  5/  6   N/A
S MID LAKE BUOY  1250   67 68  350/  8/ 10 1017.4R   1
KENOSHA   LAKESH 1300   61     360/  4/  5 1018.3R
$$

TC  - TEMPERATURE IN CELSIUS
VSB - VISIBILITY IN STATUTE MILES
WCI - WIND CHILL INDEX
HX  - HEAT INDEX




USA.gov is the U.S. government's official web portal to all federal, state and local government web resources and services.